Emanuele Ruggiero

Olheiro-Chefe - Cavese
4 Jun 2028
Domingo
Processo

Personalidade

Adaptabilidade (9) Ambição (7) Controvérsia (14) Lealdade (16) Pressão (2) Profissionalismo (8) Espírito Esportivo (19) Temperamento (1)

Perfil

Estilo de Treinamento Democrático
Licença Continental B
Determinação 4
Gestão de Pessoas 8
Motivação 5
Disciplina 5
Satisfação no Trabalho
100%
Fadiga
0%
Função Olheiro-Chefe
Salário 21.4K p/s
Contrato 14.03.2029

Desempenho

Comportamento Bom
Eficácia do Treinamento
29%
Desenvolvimento do Jogador
20%
Prevenção de Lesões
45%
Implementação Tática
45%

Eventos Recentes

Aniversário 35d atrás

Monitorando agora

69
Jogador Clube Status Habilidade Confiança Observado Última observação Último voto
Juan Ignacio Capano Gimnasia y Tiro Ativo 100 / 114 40% 1 29.01.2028 -
Diego Gaitán Maipú Ativo 111 / 117 40% 1 29.01.2028 -
Federico Sena Estudiantes Ativo 107 / 107 40% 2 27.01.2028 -
Giacomo Zecca Torres Ativo 105 / 115 40% 1 27.01.2028 -
Sebastián Jaurena San Martín SJ Ativo 104 / 129 40% 1 26.01.2028 -
Estanislao Jara Madryn Ativo 102 / 98 40% 1 26.01.2028 -
Facundo Ardiles Estudiantes Ativo 105 / 92 40% 2 25.01.2028 -
Ignacio Vallejos Colegiales Ativo 119 / 102 40% 1 25.01.2028 -
Fernando Bersano Madryn Ativo 121 / 117 40% 1 24.01.2028 -
Lautaro Disanto Defensores Unidos Ativo 108 / 122 40% 1 23.01.2028 -
Valentino Werro Temperley Ativo 119 / 122 40% 1 22.01.2028 -
Oscar Garrido Mitre Ativo 128 / 101 40% 1 21.01.2028 -
Tiago Banega Gimnasia y Tiro Ativo 126 / 91 40% 1 21.01.2028 -
Emanuel Iñíguez Morón Ativo 111 / 99 40% 1 20.01.2028 -
Enzo González Defensores Ativo 116 / 114 40% 1 20.01.2028 -
Enzo Hoyos Ferro Carril Oeste Ativo 104 / 118 40% 1 18.01.2028 -
Yeferson Rodallega Envigado Ativo 131 / 100 40% 1 17.01.2028 -
Abdallah Warda Ativo 93 / 93 66% 1 01.01.2028 Aprovar
Federico Tonti Cesena Ativo 78 / 87 67% 1 01.01.2028 Aprovar
Armando Cassano Parma Ativo 81 / 91 73% 1 01.01.2028 Aprovar
Juan Pablo De la Reta Maipú Ativo 102 / 135 40% 1 21.08.2027 -
Mauro Peinipil Colón Ativo 106 / 95 40% 1 21.08.2027 -
Ilario Iotti Pro Vercelli Ativo 102 / 105 40% 1 20.08.2027 -
Sanasi Sy Pontedera Ativo 95 / 106 40% 2 19.08.2027 -
Ramiro Luna Quilmes Ativo 106 / 130 40% 1 18.08.2027 -
Gonzalo Berterame Morón Ativo 103 / 125 40% 1 16.08.2027 -
Luca Clemenza Dolomiti Bellunesi Ativo 108 / 115 40% 1 12.08.2027 -
Nicolás Schiavi Carrarese Ativo 129 / 116 40% 2 24.07.2027 -
Emanuele Anastasia Cittadella Ativo 112 / 115 40% 1 24.07.2027 -
Lorenzo Paolucci Audace Cerignola Ativo 100 / 116 40% 1 23.07.2027 -
Michael Fabbro Virtus Verona Ativo 100 / 87 40% 1 23.07.2027 -
Gavin Vlijter Giana Erminio Ativo 105 / 101 40% 1 20.07.2027 -
Niccolò Pietra Carpi Ativo 102 / 94 40% 1 19.07.2027 -
Leonardo Capezzi Sorrento Ativo 120 / 119 40% 1 16.07.2027 -
Michele Cavion Vicenza Ativo 102 / 117 40% 2 15.07.2027 -
Igor Gorbunov Arsenal Tula Ativo 85 / 106 40% 1 15.07.2027 -
Destiny Efosa Egharevba Picerno Ativo 105 / 103 40% 1 13.07.2027 -
Luca Coccolo Pro Vercelli Ativo 93 / 112 40% 1 12.07.2027 -
Michele Rocca Lumezzane Ativo 115 / 103 40% 1 11.07.2027 -
Niko Kirwan Potenza Ativo 102 / 96 40% 1 11.07.2027 -
Vince Gino Dekker Giana Erminio Ativo 107 / 94 40% 2 07.07.2027 -
Nicola Farinelli Forli Ativo 102 / 99 40% 1 06.07.2027 -
Mario Gargiulo Campobasso Ativo 98 / 122 40% 1 05.07.2027 -
Edoardo Bernardi Arzignano Ativo 92 / 94 40% 1 06.06.2027 -
Filippo Frison Trento Ativo 99 / 104 40% 1 03.06.2027 -
Luciano Peluso Giugliano Ativo 101 / 104 40% 1 29.01.2027 -
Marco Piccoli Sambenedettese Ativo 99 / 87 40% 1 28.01.2027 -
Daniele Solcia Sorrento Ativo 100 / 99 40% 1 27.01.2027 -
Niccolò Postiglione Pineto Ativo 79 / 92 55% 1 25.01.2027 -
Niccolò Zanellato Casarano Ativo 101 / 110 40% 1 24.01.2027 -
Matteo Figoli Carpi Ativo 92 / 93 40% 1 20.01.2027 -
Marco Amadio Virtus Verona Ativo 86 / 104 40% 1 19.01.2027 -
Sidnney Livyi Bereh Ativo 92 / 105 40% 1 19.01.2027 -
Ipalibo Jack Hamrun Spartans Ativo 109 / 109 40% 1 16.01.2027 -
Vincenzo Polito Hamrun Spartans Ativo 81 / 79 40% 1 15.01.2027 -
Garrik Levin Chelyabinsk Ativo 91 / 97 40% 1 15.01.2027 -
Stanislav Magkeev Fakel Ativo 122 / 110 40% 1 12.01.2027 -
Davide Mondonico Dolomiti Bellunesi Ativo 99 / 86 40% 1 12.01.2027 -
Manuel Di Paola Vis Pesaro Ativo 113 / 99 40% 1 08.01.2027 -
Liam Thompson Mansfield Town Ativo 123 / 117 40% 1 08.01.2027 -
Kai Cipot Veres Ativo 93 / 89 40% 1 06.01.2027 -
Alessandro Garattoni AlbinoLeffe Ativo 91 / 96 40% 1 05.01.2027 -
Konstantinos Stamoulis Veres Ativo 96 / 116 40% 1 05.01.2027 -
Davide Zappella Guidonia Montecelio Ativo 88 / 102 40% 1 04.01.2027 -
Thomas Sang Shrewsbury Town Ativo 78 / 99 40% 1 04.01.2027 -
Simone Iob Siracusa Ativo 106 / 100 40% 1 03.01.2027 -
Baba Adeeko Wigan Athletic Ativo 111 / 103 40% 1 03.01.2027 -
Francesco Proietto Pianese Ativo 98 / 106 40% 1 01.01.2027 -
Edoardo Biondini Empoli Ativo 76 / 97 55% 1 31.08.2026 -